FW8060 Weather Reports


Display with metric or nautical units.
time (UTC)temp
F
wind
direction
speed
MPH
gust
MPH
rain 1hr
in
rain 24hr
in
rain mn
in
humidity
%
barometer
mb
20260903055524 66 196 6.0 19.0 0.00 0.00 0.00 88 1017.4
20260903054520 67 229 6.0 17.0 0.00 0.00 0.00 87 1017.4
20260903054441 67 269 7.0 18.0 0.00 0.00 0.00 87 1017.5
20260903052518 67 240 5.0 13.0 0.00 0.00 0.00 88 1017.4
20260903051515 67 227 5.0 12.0 0.00 0.00 0.00 88 1017.3
20260903050515 66 200 5.0 15.0 0.00 0.00 0.00 88 1017.0
20260903045512 66 211 5.0 12.0 0.00 0.00 0.00 89 1017.2
20260903044508 66 173 5.0 13.0 0.00 0.00 0.00 89 1017.3
20260903043507 66 172 4.0 12.0 0.00 0.00 0.00 89 1017.2
20260903043348 66 168 3.0 11.0 0.00 0.00 0.00 89 1017.2
20260903041507 66 198 3.0 9.0 0.00 0.00 0.00 89 1017.2
20260903040506 66 121 4.0 12.0 0.00 0.00 0.00 88 1017.2
20260903035514 66 146 3.0 11.0 0.00 0.00 0.00 88 1017.4
20260903034513 66 234 3.0 8.0 0.00 0.00 0.00 87 1017.5
20260903034012 66 196 4.0 10.0 0.00 0.00 0.00 86 1017.6
20260903032510 66 236 3.0 10.0 0.00 0.00 0.00 85 1017.7
20260903032402 66 232 3.0 11.0 0.00 0.00 0.00 84 1017.6
20260903030505 66 222 3.0 10.0 0.00 0.00 0.00 83 1017.4
20260903025510 66 224 4.0 10.0 0.00 0.00 0.00 82 1017.6
20260903025413 66 167 3.0 11.0 0.00 0.00 0.00 82 1017.6
20260903024705 66 222 5.0 11.0 0.00 0.00 0.00 82 1017.4
20260903023350 66 199 5.0 10.0 0.00 0.00 0.00 81 1017.8
20260903021507 66 188 4.0 12.0 0.00 0.00 0.00 80 1017.8
20260903020509 67 200 4.0 14.0 0.00 0.00 0.00 80 1018.0
20260903020327 67 247 5.0 14.0 0.00 0.00 0.00 79 1018.1
20260903014512 67 229 5.0 17.0 0.00 0.00 0.00 78 1018.0
20260903013505 67 179 5.0 13.0 0.00 0.00 0.00 77 1017.9
20260903013302 67 199 7.0 14.0 0.00 0.00 0.00 76 1017.8
20260903011501 67 170 6.0 15.0 0.00 0.00 0.00 75 1017.9
20260903010503 67 169 6.0 15.0 0.00 0.00 0.00 74 1018.1
20260903005502 67 171 6.0 14.0 0.00 0.00 0.00 74 1018.2
20260903004503 67 201 6.0 14.0 0.00 0.00 0.00 74 1018.2
20260903004345 66 189 6.0 15.0 0.00 0.00 0.00 75 1018.3
20260903003349 66 225 6.0 12.0 0.00 0.00 0.00 75 1018.6
20260903001508 66 190 4.0 11.0 0.00 0.00 0.00 75 1018.8
20260903000505 66 248 5.0 14.0 0.00 0.00 0.00 75 1018.6
20260902235506 66 210 5.0 15.0 0.00 0.00 0.00 76 1018.6
20260902234510 66 181 5.0 11.0 0.00 0.00 0.00 77 1018.8
20260902233510 66 182 4.0 11.0 0.00 0.00 0.00 77 1018.9
20260902232508 65 201 4.0 11.0 0.00 0.00 0.00 77 1019.0
20260902231505 66 223 4.0 14.0 0.00 0.00 0.00 77 1019.1
20260902230507 66 178 5.0 13.0 0.00 0.00 0.00 77 1019.1
20260902230419 65 151 4.0 10.0 0.00 0.00 0.00 77 1019.3
20260902224458 65 184 4.0 11.0 0.00 0.00 0.00 79 1019.3
20260902223454 65 211 5.0 9.0 0.00 0.00 0.00 81 1019.5
20260902222455 65 175 5.0 11.0 0.00 0.00 0.00 81 1019.6
20260902221455 64 215 5.0 14.0 0.00 0.00 0.00 81 1019.6
20260902221332 65 235 7.0 19.0 0.00 0.00 0.00 79 1019.8
20260902215456 67 167 6.0 14.0 0.00 0.00 0.00 74 1019.9
20260902214458 66 165 5.0 15.0 0.00 0.00 0.00 72 1019.7
20260902213455 66 204 4.0 10.0 0.00 0.00 0.00 72 1019.7
20260902212456 66 203 5.0 10.0 0.00 0.00 0.00 72 1019.6
20260902212411 66 167 4.0 10.0 0.00 0.00 0.00 72 1019.7
20260902211636 66 161 5.0 11.0 0.00 0.00 0.00 72 1019.7
20260902205451 66 245 5.0 19.0 0.00 0.00 0.00 72 1019.8
20260902204451 66 194 6.0 20.0 0.00 0.00 0.00 72 1019.9
20260902203449 66 209 3.0 8.0 0.00 0.00 0.00 73 1020.0
20260902203312 66 162 2.0 6.0 0.00 0.00 0.00 73 1019.9
20260902201449 66 194 3.0 9.0 0.00 0.00 0.00 72 1019.7
20260902200448 66 189 3.0 7.0 0.00 0.00 0.00 71 1019.7
20260902195446 66 216 3.0 8.0 0.00 0.00 0.00 71 1019.7
20260902194448 66 167 3.0 6.0 0.00 0.00 0.00 71 1019.8
20260902193442 66 182 4.0 7.0 0.00 0.00 0.00 71 1019.9
20260902192443 66 176 2.0 7.0 0.00 0.00 0.00 72 1019.9
20260902192333 66 204 2.0 6.0 0.00 0.00 0.00 71 1019.9
20260902190440 66 186 3.0 6.0 0.00 0.00 0.00 70 1019.8
20260902185448 67 169 3.0 8.0 0.00 0.00 0.00 69 1019.9
20260902184453 67 167 2.0 5.0 0.00 0.00 0.00 68 1019.8
20260902183814 67 168 2.0 8.0 0.00 0.00 0.00 69 1019.9
20260902182808 68 217 2.0 6.0 0.00 0.00 0.00 67 1019.9
20260902181808 68 213 3.0 8.0 0.00 0.00 0.00 66 1019.9
20260902180811 68 211 5.0 13.0 0.00 0.00 0.00 65 1019.8
20260902175804 69 247 4.0 10.0 0.00 0.00 0.00 67 1019.9
20260902174804 69 225 4.0 9.0 0.00 0.00 0.00 67 1019.9
20260902174701 69 248 4.0 8.0 0.00 0.00 0.00 66 1020.0
20260902172804 69 198 5.0 10.0 0.00 0.00 0.00 66 1020.0
20260902171805 70 228 4.0 10.0 0.00 0.00 0.00 66 1019.8
20260902170808 70 219 6.0 12.0 0.00 0.00 0.00 67 1019.8
20260902165814 70 296 4.0 12.0 0.00 0.00 0.00 68 1019.9
20260902164813 70 267 4.0 9.0 0.00 0.00 0.00 69 1019.9
20260902163808 70 184 4.0 10.0 0.00 0.00 0.00 69 1020.0
20260902162807 70 196 5.0 11.0 0.00 0.00 0.00 69 1020.0
20260902161806 70 234 4.0 12.0 0.00 0.00 0.00 69 1020.0
20260902160804 71 244 3.0 9.0 0.00 0.00 0.00 69 1020.1
20260902155759 71 218 4.0 10.0 0.00 0.00 0.00 67 1020.2
20260902154806 71 250 4.0 8.0 0.00 0.00 0.00 66 1020.2
20260902153800 71 261 5.0 11.0 0.00 0.00 0.00 65 1020.3
20260902152759 71 253 3.0 12.0 0.00 0.00 0.00 68 1020.3
20260902151759 72 261 3.0 8.0 0.00 0.00 0.00 67 1020.3
20260902150802 71 236 4.0 9.0 0.00 0.00 0.00 69 1020.3
20260902145758 71 238 5.0 13.0 0.00 0.00 0.00 69 1020.5
20260902144800 71 277 3.0 8.0 0.00 0.00 0.00 71 1020.5
20260902143758 70 237 3.0 8.0 0.00 0.00 0.00 70 1020.5
20260902143652 70 244 4.0 9.0 0.00 0.00 0.00 70 1020.6
20260902142024 71 248 3.0 10.0 0.00 0.00 0.00 67 1020.6
20260902141800 71 294 5.0 12.0 0.00 0.00 0.00 67 1020.6
20260902140758 71 305 5.0 12.0 0.00 0.00 0.00 66 1020.6
20260902134758 71 202 4.0 10.0 0.00 0.00 0.00 66 1020.6
20260902133756 72 262 4.0 10.0 0.00 0.00 0.00 64 1020.5
20260902132753 72 234 4.0 11.0 0.00 0.00 0.00 65 1020.6
20260902132227 71 257 4.0 10.0 0.00 0.00 0.00 68 1020.8
20260902131924 70 140 4.0 10.0 0.00 0.00 0.00 69 1020.8
20260902131756 71 123 4.0 9.0 0.00 0.00 0.00 69 1020.6
20260902125658 71 239 2.0 7.0 0.00 0.00 0.00 69 1020.9
20260902124224 70 200 4.0 10.0 0.00 0.00 0.00 71 1020.9
20260902123725 70 252 4.0 10.0 0.00 0.00 0.00 69 1021.0
20260902121752 71 155 4.0 11.0 0.00 0.00 0.00 69 1020.9
20260902120748 71 233 4.0 10.0 0.00 0.00 0.00 69 1020.9
20260902115746 70 159 5.0 13.0 0.00 0.00 0.00 72 1020.9
20260902114751 69 227 5.0 11.0 0.00 0.00 0.00 73 1021.1
20260902113746 69 261 4.0 11.0 0.00 0.00 0.00 73 1021.2
20260902112745 69 244 4.0 14.0 0.00 0.00 0.00 73 1021.3
20260902111746 69 263 5.0 12.0 0.00 0.00 0.00 73 1021.4
20260902110744 68 140 4.0 12.0 0.00 0.00 0.00 75 1021.5
20260902105748 68 236 6.0 12.0 0.00 0.00 0.00 76 1021.6
20260902104743 68 275 4.0 10.0 0.00 0.00 0.00 77 1021.6
20260902103747 68 220 5.0 11.0 0.00 0.00 0.00 77 1021.7
20260902102745 68 223 4.0 14.0 0.00 0.00 0.00 75 1021.6
20260902101747 68 273 4.0 10.0 0.00 0.00 0.00 76 1021.3
20260902101641 68 249 5.0 13.0 0.00 0.00 0.00 78 1021.4
20260902095745 68 266 4.0 12.0 0.00 0.00 0.00 76 1021.6
20260902094748 68 229 4.0 8.0 0.00 0.00 0.00 77 1021.5
20260902093749 68 208 4.0 10.0 0.00 0.00 0.00 78 1021.5
20260902092750 68 236 4.0 9.0 0.00 0.00 0.00 78 1021.4
20260902091744 68 279 4.0 11.0 0.00 0.00 0.00 77 1021.4
20260902090744 68 185 3.0 9.0 0.00 0.00 0.00 79 1021.1
20260902085743 67 209 4.0 9.0 0.00 0.00 0.00 80 1021.0
20260902084741 67 271 3.0 8.0 0.00 0.00 0.00 81 1021.1
20260902083742 66 260 4.0 9.0 0.00 0.00 0.00 83 1021.1
20260902083244 65 229 4.0 11.0 0.00 0.00 0.00 84 1020.9
20260902081744 64 209 4.0 9.0 0.00 0.00 0.00 86 1020.9
20260902080742 64 257 3.0 8.0 0.00 0.00 0.00 87 1021.0
20260902080644 63 177 3.0 8.0 0.00 0.00 0.00 88 1020.8
20260902074742 62 158 3.0 6.0 0.00 0.00 0.00 90 1020.6
20260902073742 61 183 3.0 7.0 0.00 0.00 0.00 90 1020.5
20260902073650 61 227 3.0 7.0 0.00 0.00 0.00 91 1020.4
20260902071856 59 169 3.0 9.0 0.00 0.00 0.00 92 1020.4
20260902071751 60 177 3.0 8.0 0.00 0.00 0.00 92 1020.4
20260902070722 59 187 3.0 9.0 0.00 0.00 0.00 93 1020.4
20260902064742 58 219 4.0 9.0 0.00 0.00 0.00 93 1020.6
20260902063743 58 202 4.0 8.0 0.00 0.00 0.00 93 1020.5
20260902062745 57 184 3.0 8.0 0.00 0.00 0.00 93 1020.4
20260902061742 57 174 3.0 7.0 0.00 0.00 0.00 93 1020.3
20260902060740 57 199 3.0 8.0 0.00 0.00 0.00 93 1020.3